sat.trackr.live / text

‹ back to catalog

BEIDOU-3 IGSO-1 (C38)

NORAD 44204 · 2019-023A

PAYLOAD ACTIVE UNKNOWN

§ Identity

Operator
Country
PRC
Launch date
2019-04-20
Launch site
XICLF
Launch vehicle
Mass (kg)
RCS (m²)

Purposes: comms, nav

External: N2YO · Heavens-Above · Gunter

§ Orbital elements

Epoch: 2026-09-14T17:13:09.931584Z

Period
1,436.18 min
Inclination
58.8243°
Eccentricity
0.0027840
Mean motion
1.00265917 rev/d
Perigee alt
35,670.8 km
Apogee alt
35,905.6 km
Semi-major
42,166.4 km
B*
0.0000e+0
RAAN
36.7337°
Arg perigee
223.3595°
Mean anomaly
110.6540°
Rev number
810

§ Raw data

BEIDOU-3 IGSO-1 (C38)1 44204U 19023A   26257.71747606 -.00000213  00000+0  00000+0 0  99942 44204  58.8243  36.7337 0027840 223.3595 110.6540  1.00265917  8102

JSON: /api/v1/satellites/44204 · /tle

For live sub-satellite position, see the globe view (requires WebGL).

§ Visibility from observer

Set your observer location to see the next 7 days of passes ≥ 10°. The values pass through the URL so the page stays shareable.

No JS? Fill the form by hand. The geolocation button needs JavaScript.